Wetbulb
75.68 75.80 75.77 75.57 75.79 76.72 76.31 76.49 76.56 76.94 78.11 78.38 78.23 77.64 77.26 77.28 79.93 79.88 79.41 78.12 77.50 77.08 75.28 72.88 71.65 70.28 66.22 66.78 64.48 65.09 65.37 64.63 62.92 61.07 60.19 61.44 62.04 63.29 64.36 63.97 62.87 62.45 61.31
75.83 76.39 76.46 76.75 76.85 76.75 76.65 76.62 77.25 77.19 77.71 77.44 78.06 78.11 78.32 77.45 77.30 78.88 79.03 77.89 76.96 76.30 75.71 73.40 71.97 70.32 68.02 67.31 64.79 66.30 65.75 67.03 63.89 60.91 59.87 61.11 61.68 64.16 63.63 62.46 61.89 63.00 63.36
75.37 75.60 76.57 77.09 77.76 78.11 78.32 78.70 78.91 78.89 78.91 78.70 78.35 78.49 78.89 78.40 76.87 77.81 79.12 78.51 78.02 76.58 76.10 74.00 72.66 70.07 68.82 64.96 66.21 65.53 65.92 66.07 65.81 62.06 59.58 61.79 62.74 63.81 62.38 63.69 63.77 63.76 62.76
75.58 75.44 75.74 76.53 77.39 78.03 79.03 79.29 79.52 80.03 79.86 79.71 79.77 79.64 79.70 79.00 77.92 78.35 78.50 78.77 78.42 76.45 76.42 73.92 72.11 69.95 66.65 65.74 66.45 66.55 65.74 64.77 64.02 62.21 59.86 59.70 62.83 63.05 62.89 61.18 61.62 64.17 59.87
74.15 75.03 74.82 76.35 78.19 79.07 79.45 79.68 80.13 80.33 80.32 80.53 80.03 80.01 80.12 79.24 77.84 78.20 77.98 78.02 78.01 75.91 73.74 72.82 71.67 68.20 63.43 63.84 65.05 65.90 65.56 64.43 63.34 62.02 58.76 59.02 60.28 61.39 60.55 61.80 61.28 58.48 57.41
73.41 71.57 75.52 75.29 75.11 76.86 75.52 77.52 78.33 78.96 79.61 80.16 79.44 79.55 79.29 78.97 70.38 67.11 72.72 77.30 77.62 75.99 71.69 71.96 67.72 63.55 62.08 60.95 60.50 60.11 62.94 64.42 63.81 63.69 60.56 59.38 60.79 61.86 61.74 60.01 60.15 57.44 55.22
73.67 73.23 72.64 73.57 75.29 75.98 73.89 73.14 73.62 77.93 76.36 77.65 79.33 79.09 79.24 79.62 65.37 64.42 66.58 74.98 76.96 76.16 73.63 72.20 68.18 65.83 63.95 62.82 59.51 58.96 58.89 59.21 60.85 65.04 61.83 61.07 61.22 62.13 62.25 61.98 60.14 58.68 56.14
69.50 70.34 71.94 71.81 72.28 74.54 76.63 76.45 74.39 75.61 77.64 78.24 78.20 79.19 78.73 71.08 63.84 63.94 64.44 72.93 74.27 75.14 74.74 72.05 70.08 65.43 65.31 64.52 64.47 63.55 63.23 62.57 63.37 63.61 63.33 62.63 62.95 64.17 64.24 63.11 63.30 60.84 62.05
67.95 68.90 69.92 71.24 72.01 73.27 73.57 75.65 77.38 76.42 77.00 77.79 76.80 74.28 75.14 75.67 62.57 61.67 67.79 71.38 71.17 71.15 72.77 71.78 69.12 67.07 59.98 59.57 64.44 63.33 62.40 61.15 58.11 57.48 56.92 56.68 56.79 56.77 59.11 62.44 62.34 58.33 61.88
67.03 67.75 69.64 72.11 72.57 72.83 74.32 74.47 74.77 76.64 76.92 75.98 75.79 75.42 68.65 73.20 60.01 57.68 65.90 70.52 68.33 69.17 69.19 71.07 63.56 65.76 56.81 56.98 65.23 64.13 62.30 61.54 61.27 60.71 59.91 58.27 59.94 57.61 57.88 63.70 63.46 61.06 61.79
66.93 67.79 70.09 71.05 72.31 73.08 74.69 75.39 75.20 76.92 75.65 75.21 75.17 75.36 74.77 73.87 69.05 56.95 58.95 69.12 67.36 67.63 67.63 68.58 69.79 56.83 54.02 53.61 57.58 65.23 63.00 63.23 61.38 62.64 61.81 61.45 62.24 62.24 62.65 62.99 63.24 62.61 60.95
66.52 67.15 68.49 69.60 69.86 71.35 72.92 73.70 74.36 76.22 73.99 74.23 74.35 73.59 73.56 74.20 61.54 55.86 57.68 61.83 64.35 68.76 68.35 69.67 69.40 53.44 51.66 52.11 56.96 53.88 54.86 58.68 63.16 62.34 61.64 61.24 60.88 61.76 61.68 62.39 63.34 63.53 63.85
64.44 66.00 67.91 68.77 69.36 69.51 70.59 71.12 73.00 75.89 76.03 75.51 77.74 77.49 73.07 71.91 72.24 55.84 55.68 56.59 59.67 68.71 69.87 67.45 57.11 50.31 50.11 53.49 52.96 53.30 54.16 63.03 62.59 61.70 61.37 61.36 61.49 61.58 61.76 62.13 62.33 64.03 64.20
62.73 64.40 66.50 67.70 67.18 68.48 68.02 66.39 68.26 68.70 70.88 72.79 72.94 72.40 73.56 74.35 74.52 68.37 64.02 60.91 58.93 64.47 60.15 58.13 56.88 56.92 56.87 60.19 57.19 57.53 63.79 64.89 63.46 62.29 61.86 61.72 61.45 61.06 61.26 62.30 61.22 61.26 60.97
63.69 63.10 64.12 65.50 66.72 66.05 66.41 62.52 62.21 64.57 56.67 62.58 68.40 70.07 71.12 70.92 68.08 54.39 58.04 64.40 65.27 63.60 63.58 61.47 58.65 58.15 59.96 62.26 62.26 62.60 64.33 64.46 63.75 62.85 61.77 60.70 60.94 61.37 60.74 61.99 61.61 61.29 60.25
62.65 62.46 61.60 62.96 64.78 64.58 64.78 65.23 53.57 51.57 49.34 46.44 46.42 51.80 65.59 54.66 48.98 48.61 47.16 48.98 51.51 52.97 62.84 62.45 61.12 61.01 61.41 63.84 63.22 63.27 64.09 63.28 64.30 62.52 62.21 61.25 61.12 60.92 60.53 60.91 61.38 61.03 60.16
62.58 62.42 62.32 60.73 62.30 62.59 63.09 62.97 61.38 60.18 50.79 49.88 47.16 46.62 45.89 43.37 44.36 44.44 46.98 46.08 47.71 52.96 64.31 64.38 64.51 65.12 64.54 65.74 65.32 64.88 64.24 64.59 65.52 63.26 61.39 61.26 61.98 61.62 59.59 60.38 60.34 60.71 59.94
62.44 54.29 61.86 62.39 62.92 63.00 63.22 62.12 61.74 60.65 62.76 64.18 50.38 52.55 46.51 44.08 42.99 44.63 45.71 49.68 55.62 58.68 65.91 64.24 64.06 63.75 64.74 66.01 66.73 65.29 65.42 65.01 63.88 63.18 59.08 61.10 61.93 60.06 60.69 60.62 60.31 59.74 60.18
61.00 60.86 60.43 61.66 62.71 60.47 62.77 61.85 61.49 60.34 60.00 61.47 62.97 57.59 56.69 47.34 44.99 44.08 44.92 65.16 63.06 63.34 64.78 63.63 63.59 63.31 62.73 63.16 63.85 66.00 66.18 64.25 63.06 59.89 59.39 61.79 61.31 61.73 61.26 61.40 60.98 54.55 56.53
59.83 56.11 56.83 60.09 61.01 61.14 60.52 59.61 59.81 58.36 57.83 57.79 58.05 57.79 58.19 61.73 64.01 63.14 64.07 65.18 64.34 64.65 64.40 64.33 63.70 62.49 61.21 61.51 61.10 60.85 59.54 60.04 59.83 60.17 60.45 61.08 62.75 60.59 59.93 60.46 61.20 59.71 59.79
58.46 59.05 54.83 59.19 58.89 57.99 58.16 56.62 56.97 56.84 55.01 55.77 54.72 52.64 44.23 54.39 61.29 62.50 59.85 58.58 58.93 59.00 60.53 63.65 64.66 64.65 62.75 60.99 61.07 59.40 59.40 59.05 59.07 59.03 59.73 61.72 60.42 60.42 59.56 59.86 60.55 61.32 60.84
57.68 57.88 57.36 56.10 56.05 55.30 54.60 54.99 55.40 54.80 54.74 52.97 52.88 52.14 45.88 54.21 54.58 55.67 54.25 53.96 53.98 54.19 54.68 57.00 59.24 62.10 63.55 62.41 60.39 59.07 58.73 58.84 59.49 58.66 60.20 60.22 58.91 57.93 57.90 59.10 60.00 61.71 61.52
56.46 56.46 55.47 53.48 53.03 51.65 52.52 53.00 52.84 53.07 52.57 51.44 50.07 49.40 49.19 49.62 50.79 51.40 51.09 50.27 50.33 50.23 50.43 51.88 53.66 54.39 55.55 59.74 62.26 61.54 60.15 58.66 58.90 59.11 58.11 58.13 58.68 58.53 59.31 58.11 58.47 58.65 59.13
54.82 54.01 51.64 50.90 50.20 49.37 50.05 50.22 50.57 47.94 49.56 50.10 48.24 48.86 46.77 46.75 46.50 46.86 47.49 47.83 48.15 48.15 48.22 48.35 48.39 48.46 49.81 51.81 54.34 58.11 62.34 63.03 61.67 59.84 59.98 58.80 57.41 56.03 59.04 58.83 57.85 58.68 59.39
52.92 50.97 48.44 47.41 47.33 47.14 47.73 48.63 48.39 48.20 47.76 47.60 47.76 47.51 47.07 45.26 44.47 44.72 44.58 45.48 45.36 46.08 45.95 46.22 46.14 46.63 46.48 47.31 47.97 48.43 42.72 33.33 49.82 53.08 59.94 58.47 58.44 60.44 58.62 58.42 58.39 58.82 59.99
51.92 49.28 47.58 47.25 46.34 45.92 46.18 46.13 46.43 46.13 45.33 45.87 44.61 44.63 44.54 43.74 43.61 43.12 43.15 44.25 44.05 44.81 45.80 46.03 46.13 46.75 46.65 45.78 44.65 37.50 33.84 32.74 43.06 37.19 58.90 59.72 59.68 59.08 59.62 59.74 59.51 60.12 61.55
MSLP
1011.40 1011.84 1012.39 1012.79 1013.11 1013.45 1013.58 1013.61 1013.57 1013.56 1013.52 1013.45 1013.36 1013.36 1013.41 1013.38 1013.42 1013.56 1013.61 1013.98 1014.09 1014.29 1014.54 1014.59 1014.75 1015.05 1015.01 1014.51 1014.51 1014.33 1014.21 1014.20 1013.92 1016.59 1017.64 1018.11 1018.05 1017.53 1017.09 1017.07 1016.85 1016.80 1017.40
1011.05 1011.61 1011.95 1012.40 1012.74 1012.90 1013.20 1013.26 1013.29 1013.19 1013.18 1013.13 1012.99 1012.83 1012.78 1012.93 1013.04 1013.14 1013.33 1013.28 1013.68 1013.97 1014.13 1014.36 1014.62 1014.75 1015.29 1015.12 1014.45 1015.02 1014.64 1014.53 1014.71 1015.97 1017.44 1017.54 1017.54 1017.27 1017.25 1017.08 1016.87 1016.22 1016.58
1010.87 1011.29 1011.86 1012.23 1012.47 1012.60 1012.72 1012.86 1012.86 1012.75 1012.70 1012.57 1012.54 1012.50 1012.34 1012.50 1012.56 1012.77 1013.02 1013.05 1013.23 1013.56 1013.55 1014.22 1014.46 1014.93 1015.24 1014.97 1015.03 1014.63 1014.44 1014.47 1014.55 1015.41 1016.54 1016.95 1016.78 1016.94 1016.76 1016.66 1016.67 1016.51 1016.74
1011.11 1011.33 1011.70 1011.77 1011.89 1012.05 1012.23 1012.28 1012.27 1012.22 1012.23 1012.20 1012.17 1012.08 1012.07 1012.08 1012.14 1012.23 1012.40 1012.58 1012.85 1013.34 1013.34 1013.89 1014.42 1014.69 1015.21 1015.30 1015.22 1015.22 1015.01 1014.71 1015.03 1015.19 1016.04 1016.55 1016.44 1016.75 1016.51 1015.99 1015.63 1015.83 1016.96
1011.73 1011.54 1011.76 1012.16 1012.12 1011.98 1011.78 1011.74 1011.78 1011.69 1011.56 1011.58 1011.67 1011.70 1011.76 1011.86 1011.71 1011.96 1012.10 1012.35 1012.57 1013.17 1013.47 1013.66 1014.24 1014.71 1015.55 1015.60 1015.18 1015.54 1015.43 1014.80 1014.62 1014.70 1015.87 1016.02 1015.86 1015.94 1016.23 1016.03 1015.62 1016.80 1017.56
1012.33 1011.99 1011.22 1012.09 1012.75 1012.82 1012.79 1011.62 1011.99 1011.50 1011.01 1010.93 1010.72 1010.96 1011.12 1011.08 1011.02 1011.45 1011.85 1012.26 1012.53 1012.96 1013.53 1013.57 1014.52 1015.36 1015.94 1016.25 1016.10 1016.51 1016.28 1015.52 1015.20 1014.69 1015.31 1015.93 1016.20 1016.15 1016.39 1016.31 1016.29 1017.13 1017.66
1012.20 1012.25 1012.09 1011.64 1012.76 1012.72 1012.80 1012.09 1011.78 1011.53 1011.09 1010.50 1010.37 1010.34 1010.58 1010.94 1011.52 1011.51 1011.71 1012.25 1012.59 1012.91 1013.55 1013.94 1014.16 1014.86 1016.03 1016.40 1016.65 1016.78 1017.00 1016.52 1015.99 1015.66 1015.77 1016.06 1016.44 1016.52 1016.82 1016.38 1017.01 1017.38 1017.81
1012.59 1011.87 1012.53 1012.22 1012.89 1013.01 1012.31 1012.14 1011.90 1011.28 1010.45 1010.39 1010.26 1010.24 1010.48 1011.76 1011.85 1011.57 1011.67 1012.48 1011.77 1013.06 1013.69 1014.21 1013.89 1014.97 1015.58 1016.08 1016.15 1016.62 1016.60 1016.88 1016.72 1015.79 1016.23 1016.63 1016.92 1017.04 1016.85 1016.90 1016.95 1017.32 1017.39
1013.08 1012.71 1012.96 1013.53 1012.86 1013.29 1012.81 1011.93 1011.32 1010.97 1010.67 1010.33 1010.70 1010.88 1011.11 1011.18 1012.30 1012.07 1011.71 1011.71 1011.10 1013.00 1014.15 1014.50 1014.33 1014.76 1015.63 1016.21 1016.32 1016.56 1016.77 1017.15 1017.45 1017.40 1017.73 1017.99 1017.68 1017.93 1017.73 1016.66 1016.16 1016.89 1016.36
1013.44 1013.72 1012.99 1013.13 1013.55 1012.80 1012.07 1011.73 1011.52 1011.12 1010.40 1010.08 1010.60 1010.85 1011.43 1010.81 1011.49 1011.51 1011.10 1011.05 1011.05 1012.26 1014.28 1014.93 1015.69 1014.80 1015.61 1016.37 1016.52 1016.61 1016.62 1016.91 1017.01 1017.48 1017.98 1018.25 1018.07 1018.19 1018.04 1017.22 1016.27 1015.86 1016.19
1013.80 1013.77 1013.24 1013.29 1013.27 1012.46 1011.75 1011.23 1010.90 1010.29 1010.17 1009.95 1010.01 1010.37 1010.69 1010.15 1010.71 1010.93 1010.91 1010.58 1009.64 1011.12 1012.63 1013.76 1015.29 1015.47 1015.78 1016.25 1016.61 1016.51 1016.50 1016.92 1016.81 1016.80 1016.72 1016.90 1017.15 1017.49 1017.35 1017.52 1017.70 1016.43 1016.59
1013.91 1013.96 1013.62 1013.35 1013.08 1012.28 1011.45 1011.05 1010.54 1009.83 1010.05 1009.91 1010.01 1010.05 1009.50 1009.77 1010.91 1011.10 1010.78 1010.40 1010.91 1011.37 1012.01 1012.76 1014.20 1015.58 1015.74 1016.18 1016.61 1016.76 1017.12 1017.02 1016.55 1016.01 1016.28 1016.20 1016.64 1016.77 1017.37 1017.72 1018.33 1018.11 1017.89
1014.46 1014.00 1013.55 1013.05 1012.58 1012.27 1011.63 1011.41 1010.89 1009.88 1009.90 1009.46 1009.14 1009.19 1008.97 1009.17 1010.18 1011.00 1011.86 1010.90 1010.61 1011.05 1011.54 1012.58 1013.46 1015.15 1015.81 1016.28 1016.67 1016.93 1016.93 1016.19 1015.82 1015.61 1015.66 1016.36 1016.99 1017.58 1017.99 1018.17 1018.58 1018.66 1018.66
1014.45 1014.10 1013.54 1013.07 1012.68 1012.33 1011.99 1011.95 1011.75 1011.28 1010.63 1009.80 1009.20 1009.63 1009.08 1009.22 1009.46 1010.39 1010.95 1011.44 1011.44 1011.63 1012.10 1012.83 1013.65 1015.26 1015.86 1015.55 1016.50 1016.95 1015.99 1015.48 1015.61 1015.40 1015.60 1016.14 1016.90 1017.49 1017.54 1017.64 1017.72 1017.80 1017.90
1014.27 1014.02 1013.40 1012.58 1012.23 1012.25 1012.28 1012.84 1012.71 1012.37 1013.03 1012.41 1011.35 1010.69 1010.25 1010.17 1010.69 1011.12 1011.09 1011.32 1011.47 1011.89 1012.44 1013.17 1014.12 1015.06 1015.30 1015.04 1015.48 1015.80 1015.36 1015.36 1015.47 1015.53 1015.94 1016.43 1016.32 1016.67 1017.13 1017.61 1017.63 1017.78 1017.53
1013.75 1013.33 1013.32 1012.99 1012.48 1012.68 1012.57 1012.59 1012.79 1012.84 1012.93 1012.79 1012.82 1012.67 1011.06 1011.07 1011.39 1010.97 1011.20 1011.29 1011.46 1011.81 1012.36 1013.01 1013.27 1013.63 1013.74 1013.70 1014.21 1014.63 1014.65 1014.91 1015.07 1015.51 1015.66 1016.09 1016.16 1016.25 1016.79 1017.10 1017.42 1017.52 1017.61
1014.12 1013.78 1013.50 1013.18 1013.24 1013.14 1013.03 1013.02 1012.77 1012.33 1012.48 1012.60 1012.67 1012.54 1012.45 1012.38 1011.56 1011.36 1011.19 1011.56 1011.50 1011.72 1012.02 1012.26 1012.19 1012.29 1012.56 1012.66 1013.04 1013.44 1013.80 1014.09 1014.91 1015.43 1015.40 1016.00 1016.03 1016.32 1017.04 1016.93 1016.99 1017.30 1017.82
1014.46 1014.20 1013.84 1013.29 1013.11 1013.03 1013.04 1013.15 1013.07 1012.81 1012.54 1012.44 1012.53 1012.52 1012.41 1012.34 1011.84 1011.69 1011.45 1011.67 1012.10 1012.00 1011.65 1011.83 1011.80 1011.99 1011.99 1012.05 1012.11 1012.58 1012.95 1013.58 1014.46 1015.17 1015.94 1015.59 1015.79 1016.46 1016.79 1016.76 1016.79 1017.04 1017.39
1014.50 1014.34 1014.45 1013.88 1013.49 1013.64 1013.16 1013.31 1013.16 1013.04 1012.96 1012.75 1012.39 1012.24 1012.19 1012.21 1012.06 1011.99 1011.90 1011.19 1011.50 1011.66 1011.59 1011.66 1011.80 1012.08 1012.25 1012.33 1012.37 1012.37 1012.69 1013.51 1014.23 1015.55 1015.71 1015.29 1015.77 1015.83 1016.13 1016.50 1016.76 1016.83 1017.19
1014.36 1014.94 1014.95 1014.22 1013.74 1013.61 1013.63 1013.69 1013.68 1013.56 1013.09 1013.13 1013.14 1013.12 1012.95 1011.86 1011.76 1012.04 1011.45 1011.21 1011.46 1011.55 1011.44 1011.36 1011.79 1012.06 1012.43 1012.54 1012.76 1013.16 1013.62 1014.22 1014.92 1015.39 1015.78 1015.76 1015.58 1016.22 1016.25 1016.36 1016.43 1017.10 1017.09
1014.54 1014.26 1015.06 1014.35 1014.25 1014.24 1014.08 1014.09 1013.91 1013.66 1013.49 1013.08 1013.38 1013.56 1013.67 1012.95 1012.26 1012.04 1011.97 1011.89 1011.76 1011.77 1011.58 1011.19 1011.17 1011.39 1012.03 1012.39 1013.00 1013.39 1013.69 1014.35 1014.98 1015.05 1015.63 1015.29 1016.04 1016.20 1016.81 1016.71 1016.03 1016.47 1016.88
1014.71 1014.40 1014.66 1014.88 1014.85 1014.77 1014.79 1014.50 1014.27 1014.07 1013.79 1013.63 1013.56 1013.70 1013.62 1012.81 1012.91 1012.93 1012.86 1012.73 1012.60 1012.61 1012.60 1012.41 1011.89 1011.81 1011.87 1012.15 1012.74 1012.99 1013.31 1013.84 1014.25 1014.67 1014.89 1015.46 1015.98 1016.36 1016.81 1016.99 1016.42 1016.16 1016.58
1015.06 1014.85 1014.98 1015.40 1015.38 1015.39 1015.01 1014.96 1014.76 1014.48 1014.30 1014.17 1013.91 1013.95 1013.98 1013.77 1013.66 1013.50 1013.62 1013.51 1013.49 1013.37 1013.34 1013.22 1012.82 1012.78 1012.65 1012.47 1012.18 1012.42 1012.70 1013.18 1013.62 1014.15 1014.71 1015.25 1015.82 1016.34 1016.62 1016.86 1016.75 1016.63 1016.68
1015.84 1015.77 1016.00 1016.09 1015.99 1015.83 1015.46 1015.19 1015.00 1014.86 1014.70 1014.52 1014.29 1014.31 1014.58 1014.58 1014.35 1014.21 1014.17 1014.00 1013.88 1013.76 1013.72 1013.36 1013.17 1013.38 1013.17 1013.16 1012.79 1012.71 1012.11 1012.37 1013.09 1013.76 1014.10 1014.78 1015.39 1015.80 1016.37 1016.68 1017.11 1016.97 1016.87
1016.55 1016.77 1016.82 1016.70 1016.45 1016.20 1015.90 1015.54 1015.31 1015.11 1015.01 1014.77 1014.84 1014.60 1014.73 1014.88 1014.93 1014.90 1014.75 1014.43 1014.35 1014.18 1013.95 1013.80 1013.68 1013.59 1013.64 1013.41 1013.19 1013.15 1013.39 1013.64 1013.51 1013.24 1013.83 1014.29 1014.69 1014.96 1015.58 1016.09 1016.75 1016.69 1016.64
1016.95 1017.29 1017.30 1017.12 1016.99 1016.75 1016.41 1016.12 1015.87 1015.55 1015.48 1015.30 1015.46 1015.15 1015.48 1015.59 1015.46 1015.24 1015.03 1014.69 1014.35 1014.26 1014.30 1014.20 1013.95 1013.73 1013.59 1013.45 1013.39 1013.39 1013.47 1013.62 1013.55 1013.58 1013.35 1013.69 1014.06 1014.78 1015.27 1015.52 1015.99 1016.16 1015.85
Wind_Speed
12 11 11 10 10 10 11 11 11 11 10 10 10 9 9 9 8 8 8 6 6 5 5 3 3 1 2 5 5 3 3 4 1 5 3 3 5 4 2 4 2 7 10
9 9 9 9 8 9 10 11 11 11 11 11 11 11 11 10 10 10 10 7 7 6 7 5 4 2 1 1 4 4 5 1 5 7 4 4 4 2 3 4 4 4 7
7 8 8 8 8 9 10 10 11 12 12 12 12 13 12 10 10 10 10 10 9 7 7 5 3 3 2 3 4 3 2 2 3 5 4 3 2 1 2 3 2 3 5
4 5 7 8 9 10 10 11 12 12 12 13 12 14 13 11 11 10 10 9 9 7 6 5 5 4 4 3 2 1 2 3 3 7 4 4 2 3 2 3 2 2 6
6 7 5 8 9 9 8 9 11 11 11 11 12 13 13 11 10 11 10 9 7 7 6 6 6 7 7 5 3 1 3 3 3 5 4 2 4 3 1 3 3 7 2
6 5 7 3 5 8 8 8 11 11 9 11 11 10 13 10 8 8 9 7 7 7 7 7 9 11 7 7 10 10 8 3 2 1 8 2 4 3 4 4 8 5 3
6 6 5 7 9 8 8 9 10 13 9 11 10 10 10 11 7 3 5 4 6 6 7 7 9 9 9 8 9 7 6 7 8 2 5 3 4 5 3 2 5 3 1
6 7 6 4 7 11 12 12 9 12 13 9 9 8 4 6 4 5 9 5 4 7 7 8 8 12 10 9 8 6 8 8 5 5 6 5 4 3 2 3 4 3 2
10 7 7 8 7 10 11 11 13 9 10 7 4 3 3 7 6 8 7 8 13 1 5 6 9 11 12 7 8 8 8 8 10 14 13 9 10 9 10 5 3 4 2
10 9 4 7 9 9 10 9 9 13 8 7 6 4 6 10 12 14 10 6 10 7 4 2 8 10 14 10 8 8 8 8 10 10 9 7 5 5 5 7 2 4 3
10 9 9 7 9 10 9 10 7 9 6 6 8 8 7 10 8 8 6 5 9 8 8 7 8 12 15 11 7 7 7 9 9 8 8 6 5 5 3 5 7 6 5
8 8 9 7 7 8 11 11 10 5 5 5 6 8 2 2 8 7 6 6 10 8 9 7 9 17 15 11 8 12 9 10 7 7 5 6 5 3 5 5 5 6 7
8 7 8 8 7 7 9 10 9 6 6 9 5 4 3 4 8 11 7 10 13 8 4 8 17 18 14 8 11 13 12 7 5 6 6 5 4 5 5 6 5 6 5
6 7 6 7 6 7 7 8 9 9 9 8 4 6 5 6 5 3 5 4 7 6 10 10 15 15 13 10 12 10 9 6 5 4 5 7 6 6 4 4 5 5 6
5 5 7 7 7 8 5 4 5 5 4 7 8 7 6 6 2 3 2 4 6 7 9 9 11 12 12 11 11 11 9 7 6 5 6 7 7 6 6 4 4 4 5
8 6 5 7 6 6 7 7 5 4 5 6 7 6 7 2 4 6 4 3 12 16 7 9 11 12 13 12 12 11 10 8 7 6 7 6 6 6 6 6 5 4 5
8 9 8 5 5 6 6 7 8 4 6 8 9 5 4 11 10 9 5 2 13 13 5 9 11 12 12 12 12 11 11 10 9 8 6 7 6 5 6 7 6 5 5
8 5 7 7 7 6 6 6 5 5 6 4 8 6 1 4 2 6 6 8 3 3 3 6 6 7 8 9 11 11 11 11 11 9 6 8 7 7 7 6 7 7 7
7 6 9 9 7 7 6 6 6 5 4 5 4 5 3 1 3 4 8 3 7 6 4 4 3 3 2 1 3 2 3 7 9 9 7 8 8 8 7 7 6 3 6
7 6 5 8 8 8 6 7 5 4 2 3 4 6 7 7 2 2 2 2 5 5 4 4 5 5 5 4 5 5 5 8 9 7 7 7 8 3 4 6 8 8 8
6 6 5 7 7 7 8 6 7 5 5 2 2 3 10 4 3 3 3 4 4 4 4 3 3 5 5 6 6 6 7 7 7 7 6 8 7 9 4 4 5 8 8
8 7 6 7 7 7 7 8 6 5 5 3 3 4 10 4 4 3 4 4 4 4 4 3 3 3 3 6 7 8 9 10 9 8 10 9 7 6 5 4 5 7 8
8 9 8 8 8 8 6 6 6 5 4 3 2 3 4 3 2 2 3 3 3 3 4 3 3 3 4 3 4 6 8 8 9 8 8 8 9 8 9 5 3 1 5
9 9 8 7 7 7 7 6 5 4 3 2 3 2 2 3 3 4 3 3 3 3 3 3 4 4 3 2 3 4 3 5 9 10 11 10 9 9 10 9 6 8 6
8 7 6 7 7 7 7 5 4 3 3 3 2 3 3 3 3 3 3 3 3 3 4 3 3 3 3 2 1 2 4 6 4 5 9 11 11 14 9 8 8 9 9
8 7 6 6 6 6 5 5 4 3 3 3 3 5 3 3 3 3 3 3 4 4 4 3 4 5 5 3 3 5 5 5 5 5 8 9 10 10 9 11 14 10 13
Wind_Direction
210 209 217 220 223 226 237 241 244 246 242 245 249 260 265 267 259 254 253 269 239 247 256 240 255 231 31 304 320 329 310 291 48 104 98 158 215 238 323 335 328 264 131
215 219 219 219 230 235 244 253 255 255 253 251 252 245 249 250 253 250 253 256 249 227 243 232 246 206 253 274 302 345 26 333 85 120 154 166 239 125 344 312 341 24 22
231 215 226 233 231 237 246 252 256 257 256 255 251 253 249 245 240 241 244 251 246 229 232 230 236 197 215 357 340 326 99 82 151 122 149 188 159 219 275 200 287 111 69
184 225 246 252 252 251 254 257 259 260 262 265 260 260 255 245 238 235 231 235 242 227 219 197 214 184 174 188 46 201 103 149 101 128 117 172 160 110 334 326 221 131 62
105 93 38 333 309 288 270 276 275 271 271 264 265 265 259 254 243 234 242 242 237 225 186 184 187 97 61 50 302 338 187 189 152 134 112 144 156 152 342 1 322 62 9
72 28 46 53 328 311 309 290 295 277 257 257 243 244 256 251 242 200 233 249 241 223 197 181 124 124 116 75 66 32 17 159 91 147 130 192 120 166 89 347 35 6 337
58 32 21 35 317 288 269 303 291 272 283 279 261 243 247 260 29 192 205 224 303 231 214 186 167 128 149 131 106 111 76 41 37 80 94 85 144 63 64 159 103 54 350
82 58 342 21 302 296 289 268 266 277 286 275 267 257 230 95 314 175 150 148 62 273 245 206 180 152 156 158 145 143 131 131 102 127 113 111 98 78 70 88 115 148 261
35 49 3 305 307 293 284 295 291 270 276 276 186 186 215 174 222 206 155 154 100 38 303 234 172 168 145 165 153 150 132 124 74 67 73 64 72 34 345 256 170 133 65
11 349 7 323 293 291 288 281 275 271 266 248 225 231 265 258 193 208 176 147 110 99 156 273 280 176 157 191 163 163 151 150 137 132 127 129 146 104 308 328 302 91 353
346 338 335 335 317 313 310 308 297 265 280 250 238 237 264 251 193 175 217 163 135 180 208 174 203 159 167 187 219 185 151 153 146 142 136 141 134 144 141 63 3 344 43
351 342 323 343 331 328 336 331 323 280 260 251 224 233 231 243 164 209 188 122 151 169 183 165 177 167 170 180 211 115 141 174 173 151 151 144 130 131 113 71 52 24 60
332 331 333 327 343 353 348 340 325 329 278 276 272 251 268 171 137 127 218 188 186 176 161 181 146 159 164 151 140 156 181 205 172 162 141 132 115 106 123 140 103 109 82
341 326 321 317 341 354 2 356 341 343 333 321 320 300 261 281 320 84 101 153 156 117 103 119 143 163 195 153 153 181 216 181 190 150 138 121 141 158 166 161 154 157 136
359 350 335 329 4 350 9 340 342 4 360 327 333 321 298 286 341 38 45 147 148 139 121 131 145 170 187 178 185 196 212 169 195 149 144 153 155 157 145 170 160 168 145
354 8 358 326 343 345 341 339 202 230 298 307 312 322 329 288 310 347 1 220 152 142 146 165 176 180 191 190 191 192 204 177 179 166 161 160 161 159 156 160 175 189 159
346 352 337 312 342 327 334 338 334 321 237 271 284 301 356 312 304 282 261 227 160 151 178 192 187 190 194 194 195 193 197 188 167 188 147 174 165 155 179 163 168 176 167
334 194 319 333 330 321 334 331 335 330 310 251 247 279 305 356 340 238 224 130 140 251 194 188 193 194 197 208 198 190 198 171 186 158 173 199 153 159 199 175 161 176 171
341 352 340 322 323 320 317 325 331 342 349 333 315 233 233 176 128 161 203 206 177 199 162 163 155 181 183 138 43 81 158 164 178 167 200 161 175 185 181 181 161 160 161
335 107 322 319 321 319 332 318 323 330 346 352 334 337 327 297 170 83 31 135 163 175 170 166 170 177 190 170 143 144 134 141 160 167 186 182 184 167 190 199 163 167 187
328 329 347 312 331 326 315 320 319 323 322 26 339 347 317 274 345 34 68 47 49 45 40 38 166 159 165 174 177 166 158 160 175 164 208 188 172 181 205 269 178 177 181
327 322 338 324 315 320 320 312 314 319 321 336 352 335 337 5 20 18 36 32 30 32 21 1 30 13 159 176 184 187 188 187 178 181 194 179 177 165 193 246 231 185 170
336 332 340 323 322 322 315 315 310 314 316 327 17 15 355 9 15 22 27 33 30 36 28 15 50 40 22 5 197 192 194 191 182 172 169 165 179 177 190 198 204 216 185
2 354 345 333 326 320 317 316 317 314 331 3 42 69 39 26 35 32 32 27 31 36 24 30 37 28 15 2 3 349 277 155 188 183 175 172 176 172 187 184 196 212 222
13 5 356 342 337 331 322 321 325 344 357 50 71 59 39 38 47 49 32 30 35 35 32 26 20 354 332 311 329 358 28 356 289 190 177 178 186 187 177 171 191 221 239
36 15 2 0 354 343 342 343 356 31 31 51 60 74 55 31 41 44 26 39 47 42 30 13 360 347 332 305 309 329 295 259 251 249 196 191 191 182 180 184 199 216 235